Aérodrome :
LOGIN :

S'inscrire | Disclaimer

   EN    FR    IT 

 










Légende :    VFR   VFR Marginal   IFR   IFR Intensif   IFR Très Intensif
Visi : 
Plafond : 
>= 8 km
>= 3000ft
5 à 8 km
1000 à 3000 ft
1500m à 5 km
500 à 1000 ft
800 à 1500m
200 à 500 ft
< 800m
< 200 ft
Symboles :   Orages  Brouillard  Fortes neiges  Fortes précipitations  Vent > 20 kt
SIGMETs :   Divers  Orages  Givrage  Turbulence  Onde Orograph.  Cendres Volcan.







- Altitude de l'aérodrome : 392 ft
- Code IATA : CDG
- Voir les cartes d'approche


LFPG - Paris-Aeroport Charles De Gaulle

DERNIER METAR :
  • 172100Z 02003KT 320V110 9999 FEW047 06/04 Q1027 NOSIG

METARs EXPIRÉS :
  • 172030Z 03003KT 9999 SCT047 07/04 Q1027 NOSIG
  • 172000Z VRB02KT 9999 BKN048 07/05 Q1027 NOSIG
  • 171930Z 04004KT CAVOK 07/05 Q1027 NOSIG
  • 171900Z 08005KT CAVOK 08/05 Q1027 NOSIG
  • 171830Z 06006KT 020V080 CAVOK 08/05 Q1027 NOSIG

TAF TAF LFPG
Valide du 17 à 18h jusqu'au 19 à 00h UTC


171700Z 1718/1824 04005KT 9999 FEW015 BKN050
PROB30
TEMPO 1803/1807 4000 BR
BECMG 1810/1812 29010KT
BECMG 1822/1824 BKN012
PROB40
TEMPO 1822/1824 3000 -RA TX10/1814Z TN03/1804Z
ATIS : +33 1 48 62 10 92
Pas de NOTAMs connus pour ce terrain.



MET'MAP, la Météo Aéronautique d'un coup d'oeil ! - Copyright ORBIFLY Décembre 2007 - Disclaimer

ORBIFLY MET'MAP TEAM :

Programmation & Développement : Alexandra Zaïnal
Conception & Développement : Baudouin d'Aumeries
Co-Programmation & Développement : Marc-Olivier Méhu
Soutien technique & logistique : Manuel Goepfert

Contact : metmap@orbifly.com




SOURCES & CREDITS :

   NOAA